Location: Czechy
(50.2238°N, 20.1597°E)
Time: 06:53:47
(UTC+00:00)

Daily predictions for brighter satellites

Satellite Brightness Start Highest point End
(mag) Time Altitude Azimuth Time Altitude Azimuth Time Altitude Azimuth
CZ-4C R/B 3.9 15:47:02 10° NW 15:52:05 26° N 15:57:56 10° ENE
NOSS 2-2 (D) 4.5 15:46:59 10° NW 15:52:07 61° NE 15:59:12 10° ESE
Cosmos 1602 Rocket 4.3 15:49:42 10° NNW 15:54:09 61° W 15:58:32 10° S
Cosmos 1356 Rocket 3.8 15:52:57 10° SSW 15:57:14 74° WNW 16:01:34 10° N
NOAA 12 4.1 15:53:06 10° SSE 15:58:25 83° ENE 16:03:46 10° NNW
Cosmos 1408 4.5 15:57:51 10° NE 15:59:26 12° ENE 16:00:59 10° E
CZ-4C R/B 3.8 15:58:07 10° N 16:01:18 51° WNW 16:04:33 10° SSW
Cosmos 1953 Rocket 3.8 15:59:16 10° N 16:03:35 50° ENE 16:07:53 10° SSE
Cosmos 1697 Rocket 4.3 16:02:28 10° ESE 16:04:44 12° E 16:06:59 10° ENE
Cosmos 1331 Rocket 4.1 16:01:30 10° S 16:06:30 54° ESE 16:11:32 10° NNE
Cosmos 1300 3.1 16:04:40 10° SSE 16:08:14 39° E 16:11:49 10° NNE
IRS-1C Rocket 4.3 16:03:18 10° SE 16:08:19 47° ENE 16:13:23 10° N
Cosmos 2058 Rocket 3.9 16:05:26 10° SSE 16:09:18 29° E 16:13:13 10° NNE
SL-4 R/B 1.8 16:06:30 10° W 16:10:00 69° N 16:13:29 11° E
SeaSat 1 3.8 16:07:02 10° E 16:10:40 21° NE 16:14:17 10° N
USA 215 3.8 16:04:43 10° ENE 16:10:59 50° N 16:17:13 10° WNW
ATLAS 2AS CENTAUR R/B 3.8 16:04:39 10° NW 16:11:34 33° NNE 16:17:50 11° ENE
Cosmos 1703 4.5 16:08:04 10° NNW 16:11:53 47° W 16:15:40 10° SSW
Cosmos 1346 Rocket 4.1 16:09:58 10° NNE 16:13:01 20° ENE 16:16:03 10° ESE
USA 305 3.1 16:09:00 10° WNW 16:13:17 59° NNE 16:17:18 11° E
CZ-2D R/B 4.0 16:10:36 10° SE 16:13:59 31° ENE 16:17:23 10° N
NOAA 11 4.1 16:09:31 10° SSE 16:14:57 74° ENE 16:20:23 10° NNW
Cosmos 1953 4.1 16:11:19 10° SW 16:14:57 35° WNW 16:18:38 10° N
Cosmos 44 3.5 16:11:11 10° SSW 16:15:29 46° ESE 16:20:05 10° NE
Cosmos 1825 4.0 16:14:05 10° NE 16:15:55 13° ENE 16:16:47 12° ENE
USA 306 3.1 16:15:26 10° WNW 16:19:42 61° NNE 16:23:25 13° E
Cosmos 968 Rocket 3.8 16:17:32 10° NNW 16:22:33 44° ENE 16:27:30 10° SE
ERS-2 2.0 16:20:50 10° NNE 16:24:30 82° ESE 16:28:08 10° SSW
SAR-Lupe-4 3.9 16:21:08 10° NNE 16:24:36 44° E 16:28:02 10° S
Cosmos 2369 Rocket 4.1 16:20:18 10° W 16:25:04 27° NW 16:29:53 10° NNE
Cosmos 2297 Rocket 2.2 16:19:25 10° NNW 16:25:07 67° ENE 16:30:45 10° SE
Aureole 3 Rocket 3.7 16:21:36 10° SSE 16:25:27 41° E 16:30:42 10° NNE
In-Cosmos 22 Rocket 4.2 16:22:42 10° N 16:27:57 53° ENE 16:33:16 10° SSE
Cosmos 1340 2.8 16:25:14 10° N 16:28:56 50° ENE 16:32:37 10° SSE
COSMO-SKYMED 1 2.9 16:26:21 10° NNE 16:30:31 44° E 16:34:40 10° S
H-2A R/B 3.4 16:28:28 10° N 16:32:24 40° WNW 16:36:15 10° SW
Cosmos 1110 Rocket 4.1 16:29:50 10° SSW 16:35:05 83° WNW 16:40:21 10° NNE
Cosmos 1302 Rocket 4.1 16:32:21 10° S 16:37:27 53° ESE 16:42:36 10° NNE
Timation 2 Rocket 4.5 16:33:33 10° NW 16:40:06 70° WSW 16:46:51 10° SSE
Lacrosse 5 2.8 16:35:56 10° WNW 16:40:41 39° N 16:44:18 16° ENE
ADEOS Rocket 4.1 16:36:16 10° N 16:42:21 51° WNW 16:49:03 10° SW
SAR-Lupe-1 4.0 16:38:55 10° NNE 16:42:31 67° ESE 16:46:05 10° S
Cosmos 1486 Rocket 4.0 16:37:29 10° NNW 16:42:49 64° ENE 16:48:06 10° SE
Cosmos 292 Rocket 3.7 16:39:31 10° SSW 16:44:19 86° ESE 16:49:12 10° NNE
Aureole 3 2.6 16:41:31 10° S 16:44:34 55° E 16:47:30 10° NNE
Okean O Rocket 3.5 16:41:35 10° SSW 16:45:32 33° W 16:49:30 10° NNW
YAOGAN 1 2.7 16:43:02 10° SE 16:47:12 49° ENE 16:51:23 10° N
FALCON 9 DEB 3.4 16:43:57 10° WNW 16:47:19 54° N 16:48:52 28° ENE
Meteor 2-8 Rocket 4.4 16:41:48 10° S 16:47:49 64° E 16:53:53 10° NNE
ERBS 3.9 16:46:50 10° WNW 16:49:41 25° N 16:51:09 18° NE
FALCON 9 DEB 3.2 16:46:48 10° SW 16:49:57 51° SSE 16:51:05 32° E
Cosmos 1503 Rocket 4.2 16:47:31 10° NNW 16:52:34 47° ENE 16:56:47 15° SE
CZ-2C R/B 3.3 16:47:50 10° SSE 16:53:30 60° ENE 16:59:01 10° N
FALCON 9 DEB 3.1 16:51:03 10° SW 16:54:12 57° SSE 16:55:10 37° E
SKYMED 3 4.5 16:50:15 10° NNE 16:54:37 75° ESE 16:58:57 10° S
Cosmos 2219 3.4 16:49:35 10° NNW 16:55:22 75° WSW 17:01:06 10° SSE
Cosmos 1455 3.1 16:53:30 10° SSE 16:56:10 28° ESE 16:56:10 28° ESE
Cosmos 1726 Rocket 4.0 16:53:43 10° SSW 16:58:02 64° WNW 17:02:25 10° N
Cosmos 1553 Rocket 3.9 16:54:36 10° S 17:00:54 68° E 17:07:07 10° NNE
USA 307 2.8 16:58:24 10° WNW 17:02:42 84° NNE 17:04:41 31° ESE
Meteor 2-10 Rocket 3.7 16:58:47 10° SSE 17:03:51 49° E 17:08:47 10° NNE
Cosmos 1354 Rocket 4.2 16:58:58 10° NNW 17:04:07 51° ENE 17:07:26 21° SE
Cosmos 2082 3.7 16:58:24 10° NNW 17:04:07 64° ENE 17:08:49 15° SE
CZ-4B R/B 3.1 17:01:29 10° N 17:04:27 33° WNW 17:07:19 10° SW
Cosmos 2228 4.4 17:01:11 10° SW 17:05:12 40° WNW 17:09:17 10° N
Cosmos 1939 Rocket 3.6 17:01:22 10° S 17:05:15 55° W 17:09:07 10° NNW
FALCON 9 DEB 2.9 17:02:58 10° SW 17:06:11 65° SSE 17:06:44 52° E
USA 308 2.8 17:03:14 10° WNW 17:07:33 88° NNE 17:09:20 35° ESE
ATLAS 5 CENTAUR R/B 3.8 17:06:49 10° WNW 17:10:14 20° N 17:13:29 12° NNE
Helios 1A Rocket 3.3 17:08:16 10° S 17:12:21 67° WSW 17:16:28 10° NNW
Cosmos 1992 Rocket 4.1 17:11:35 10° S 17:16:33 48° ESE 17:19:35 22° NE
ARGOS 3.3 17:13:10 19° SE 17:16:57 51° ENE 17:22:13 10° N
FALCON 9 DEB 2.7 17:14:37 10° WSW 17:17:49 79° SSE 17:17:56 77° ESE
SKYMED 2 4.0 17:14:20 10° N 17:18:39 65° WNW 17:22:57 10° SSW
Okean-O 2.9 17:14:25 10° S 17:18:50 68° WSW 17:23:16 10° NNW
Cosmos 2369 4.1 17:14:19 10° S 17:19:36 40° ESE 17:21:09 33° ENE
Cosmos 1689 Rocket 3.0 17:17:09 10° N 17:19:57 46° WNW 17:22:44 10° SSW
Cosmos 2151 4.1 17:16:58 10° N 17:19:28 27° NE 17:19:28 27° NE
Meteor 2-15 4.3 17:15:40 10° S 17:21:48 76° E 17:27:56 10° NNE
SL-08 RB Rocket 4.3 17:22:31 36° NE 17:22:31 36° NE 17:26:17 10° N
Cosmos 1656 3.6 17:17:32 10° SSW 17:23:06 83° ESE 17:28:37 11° NNE
Cosmos 1745 Rocket 4.0 17:18:13 10° N 17:24:33 89° E 17:30:54 10° S
Cosmos 1400 Rocket 3.7 17:21:27 10° SSW 17:25:28 51° WNW 17:29:28 10° N
H-2A R/B 2.0 17:21:08 10° SSE 17:26:33 78° ENE 17:32:02 10° NNW
PSLV R/B 4.4 17:22:47 10° N 17:26:57 63° WNW 17:31:02 10° SSW
Ariane Rocket 3.7 17:27:38 34° NE 17:27:38 34° NE 17:31:51 10° N
GEOS 3 Rocket 3.6 17:24:33 26° SE 17:27:39 90° SW 17:33:06 10° NW
Geosat 4.1 17:26:30 35° ENE 17:28:17 53° ESE 17:33:11 10° SSW
CZ-4 R/B 2.0 17:25:24 10° S 17:29:12 53° W 17:33:01 10° NNW
Cosmos 2227 Rocket 2.9 17:23:43 10° NW 17:29:14 54° WSW 17:34:43 10° S
Cosmos 2058 3.0 17:25:14 10° NNW 17:29:20 75° W 17:33:25 10° S
Cosmos 1892 3.6 17:26:51 10° NNW 17:30:37 50° W 17:34:23 10° S
Cosmos 220 Rocket 3.9 17:29:02 10° SSW 17:33:22 69° ESE 17:34:08 55° NE
Timation 1 Rocket 4.2 17:28:46 10° NNW 17:34:49 73° ENE 17:37:25 36° SE
CSL-04 Rocket 3.6 17:29:19 10° SSE 17:34:52 90° ENE 17:40:25 10° NNW
Cosmos 1408 2.9 17:31:15 10° NNW 17:34:52 65° W 17:37:15 20° S
Cosmos 2263 Rocket 2.7 17:29:53 10° NNW 17:35:12 38° NE 17:35:34 37° ENE
BREEZE-M R/B 3.1 17:31:18 10° W 17:37:09 68° SSW 17:37:09 68° SSW
NOSS 3-4 (A) 3.8 17:34:57 10° NW 17:41:43 62° NE 17:44:11 42° E
NOSS 3-4 (C) 3.8 17:35:04 10° NW 17:41:49 62° NE 17:44:16 42° E
Meteor 2-1 Rocket 4.0 17:36:42 10° S 17:42:13 87° E 17:47:48 10° NNE
CZ-4C R/B 3.4 17:36:14 10° NW 17:42:26 39° NNE 17:44:25 34° ENE
SeaSat 1 2.3 17:46:28 54° SE 17:47:36 85° ENE 17:52:35 10° NNW
Cosmos 1697 Rocket 2.5 17:42:05 10° SSW 17:47:40 72° ESE 17:49:37 42° NE
Cosmos 1346 Rocket 4.0 17:45:48 10° NNW 17:49:35 42° W 17:53:21 10° SSW
SL-4 R/B 2.2 17:46:04 10° WNW 17:49:04 60° W 17:49:04 60° W
CRYOSAT 2 4.4 17:46:18 10° N 17:51:10 76° W 17:56:01 10° SSW
Cosmos 1825 2.5 17:48:07 10° NNW 17:51:38 63° WNW 17:51:38 63° WNW
NOSS 3-3 (A) 3.8 17:46:53 10° SSW 17:52:41 68° SE 17:54:18 50° ENE
NOSS 3-3 (C) 3.8 17:46:59 10° SSW 17:52:49 68° SE 17:54:24 50° ENE
USA 305 3.3 17:49:08 10° WNW 17:53:21 54° SSW 17:53:27 54° SSW
USA 215 3.3 17:51:39 47° E 17:53:33 67° NNE 18:00:02 10° WNW
Cosmos 1709 Rocket 3.9 17:47:56 10° N 17:54:22 87° E 17:59:42 16° S
Cosmos 1315 Rocket 3.1 17:52:38 10° SSW 17:56:20 63° W 17:56:20 63° W
USA 306 3.5 17:55:34 10° WNW 17:59:35 49° SW 17:59:35 49° SW
DMSP B5D2-7 4.5 18:03:13 75° ESE 18:03:35 79° ENE 18:09:02 10° NNW
BREEZE-M R/B 4.0 17:59:11 10° W 18:03:40 71° SSW 18:05:18 52° SE
ATLAS 2AS CENTAUR R/B 2.8 17:56:20 10° NW 18:03:57 66° NE 18:05:17 56° E
SJ 16-02 3.7 18:03:26 10° N 18:04:08 13° N 18:04:08 13° N
MOS 1 Rocket 3.6 18:02:57 10° N 18:07:33 65° WNW 18:12:24 10° SSW
Cosmos 2297 Rocket 4.4 18:04:15 10° NW 18:08:40 24° WSW 18:13:04 10° SSW
IRS-1A Rocket 4.2 18:10:35 72° NE 18:10:35 72° NE 18:15:47 10° NNW
Cosmos 1980 Rocket 3.5 18:04:49 10° SSW 18:07:19 27° S 18:07:19 27° S
Meteor 2-17 Rocket 4.5 18:05:39 10° N 18:10:58 60° NE 18:10:58 60° NE
Cosmos 1777 Rocket 4.2 18:06:27 10° NNW 18:10:51 61° N 18:10:51 61° N
Cosmos 883 Rocket 4.4 18:05:48 10° S 18:11:58 83° W 18:18:08 10° N
COSMOS 2455 4.5 18:07:29 10° NNW 18:11:59 21° NNE 18:12:00 21° NNE
Cosmos 2315 Rocket 3.8 18:09:45 10° S 18:15:58 88° E 18:22:13 10° N
MOS 1 4.3 18:18:02 68° NNE 18:18:02 68° NNE 18:23:05 10° NNW
Resurs 01 Rocket 4.3 18:24:27 10° N 18:24:27 10° N 18:24:29 10° N
MetOp-A 4.5 18:22:01 56° N 18:22:01 56° N 18:26:15 10° NNW
Cosmos 2227 4.4 18:16:58 10° NNW 18:21:44 61° N 18:21:44 61° N
Lacrosse 5 2.7 18:19:32 10° WNW 18:23:30 43° NNW 18:23:30 43° NNW
Cosmos 2360 4.3 18:20:52 10° SSW 18:26:15 75° WSW 18:26:15 75° WSW
Meteor 2-3 Rocket 4.1 18:30:03 10° NNW 18:34:44 61° NNW 18:34:44 61° NNW
ATLAS 5 CENTAUR R/B 4.1 18:52:42 10° NW 18:55:01 19° N 18:55:01 19° N
Cosmos 2263 Rocket 3.7 19:13:50 10° NW 19:17:16 33° WNW 19:17:16 33° WNW
CZ-4C R/B 3.5 19:24:40 10° NW 19:29:36 51° NW 19:29:36 51° NW
USA 215 4.3 19:39:00 39° W 19:39:00 39° W 19:43:08 10° WNW
ATLAS 2AS CENTAUR R/B 4.1 19:47:50 10° NW 19:52:43 33° W 19:52:43 33° W
